BEIDOU-3 M21

Last updated on Fri Jun 19 2026 17:09:21 GMT+0000 (Coordinated Universal Time)

1 44794U 19078B 26169.29611751 -.00000076 00000+0 00000+0 0 9991 2 44794 53.9076 299.7502 0004064 49.2520 310.7784 1.86227678 44678
UTC large
Height (km)
Speed (km/s)
/
Latitude / Longitude
Inclination (degrees)
Orbital Period (minutes)
Azimuth
Elevation
Range (km)
Doppler Factor

Next 0 passes for location: London (51.5072 / 0.1276)

No passes found over London.
BEIDOU-3 M21